Tracking 31027 objects as of 19-Jul-2025
HD Live streaming from Space Station
objects crossing your sky now

COSMOS 252 DEB

Track COSMOS 252 DEB now!
10-day predictions


NORAD ID: 18431
Int'l Code: 1968-097EJ
Perigee: 531.1 km
Apogee: 1,854.4 km
Inclination: 62.3 °
Period: 109.1 minutes
Semi major axis: 7563 km
RCS: 0.017 m2 (small)
Launch date: November 1, 1968
Source: Commonwealth of Independent States (former USSR) (CIS)
Launch site: TYURATAM MISSILE AND SPACE COMPLEX (TTMTR)

Note: This is SATELLITE DEBRIS
Your satellite tracking list
SL-12 R/B(AUX MOTOR)
Track 1 satellite(s)




NASA's NSSDC Master Catalog

Two Line Element Set (TLE):
1 18431U 68097EJ  25199.19761026  .00000351  00000-0  14470-3 0  9993
2 18431  62.3421 224.7351 0874814  88.3969 281.6930 13.19766644404257
Source of the keplerian elements: AFSPC